Flag for Germany Weather past 2 weeks in Bad Mergentheim, Baden-Württemberg, Germany

Now
59 °F

Broken clouds.


Feels Like: 58 °F
Forecast: 50 / 69 °F
Wind: 6 mph from Southwest

Location: Niederstetten

Current Time: May 28, 2015 at 10:27:32 PM

Latest Report: May 28, 2015 at 9:20 PM


Visibility: N/A

Pressure: 29.95 "Hg

Humidity: 55%

Dew point: 43 °F

Location of Bad MergentheimLocation

Historic Weather in Bad Mergentheim — Graph

°F

Bad Mergentheim temperature yesterday

Maximum temperature yesterday: 54 °F (at 5:20 PM)
Minimum temperature yesterday: 43 °F (at 11:20 PM)
Average temperature yesterday: 49 °F

Past Weeks' High & Low Weather Summary

 TemperatureHumidityPressure
High70 °F (May 18, 5:20 PM)100% (May 25, 11:20 PM)30.33 "Hg (May 25, 11:20 PM)
Low39 °F (May 28, 5:20 AM)30% (May 22, 4:20 PM)29.74 "Hg (May 18, 7:20 PM)
Average54 °F63%30.05 "Hg
* Reported May 13 9:20 PM — May 28 9:20 PM, Bad Mergentheim, Weather by CustomWeather, © 2015

Note: Actual official high and low records may vary slightly from our data, if they occured in-between our weather recording intervals... More about our weather records

Advertising

Bad Mergentheim weather history for previous 24 hours

 ConditionsComfort  
Time TempWeatherWind HumidityBarometerVisibility
9:20 PM
Thu, May 28
59 °FBroken clouds.6 mph55%29.95 "HgN/A
8:20 PM63 °FBroken clouds.7 mph49%29.95 "HgN/A
7:20 PM64 °FBroken clouds.12 mph46%29.95 "HgN/A
6:20 PM64 °FBroken clouds.13 mph40%29.98 "HgN/A
5:20 PM64 °FPartly sunny.13 mph37%29.98 "HgN/A
4:20 PM66 °FScattered clouds.12 mph37%30.01 "HgN/A
3:20 PM63 °FScattered clouds.13 mph37%30.01 "HgN/A
2:20 PM63 °FPassing clouds.12 mph42%30.04 "HgN/A
1:20 PM61 °FScattered clouds.7 mph45%30.04 "HgN/A
12:20 PM61 °FPartly sunny.7 mph45%30.07 "HgN/A
11:20 AM59 °FPartly sunny.10 mph48%30.07 "HgN/A
10:20 AM57 °FPartly sunny.7 mph51%30.09 "HgN/A
9:20 AM54 °FPartly sunny.7 mph63%30.09 "HgN/A
8:20 AM48 °FBroken clouds.3 mph82%30.09 "HgN/A
7:20 AM45 °FFog.6 mph87%30.09 "HgN/A
6:20 AM39 °FFog.3 mph93%30.09 "HgN/A
5:20 AM39 °FPassing clouds.3 mph93%30.09 "HgN/A
4:20 AM41 °FPassing clouds.5 mph87%30.09 "HgN/A
3:20 AM43 °FQuite cool.5 mph87%30.12 "HgN/A
2:20 AM41 °FPassing clouds.5 mph87%30.12 "HgN/A
1:20 AM41 °FPassing clouds.2 mph93%30.15 "HgN/A
12:20 AM43 °FPassing clouds.2 mph87%30.15 "HgN/A
11:20 PM
Wed, May 27
43 °FPassing clouds.No wind87%30.18 "HgN/A
10:20 PM45 °FPassing clouds.1 mph81%30.18 "HgN/A
Weather by CustomWeather, © 2015

See weather overviewHow to use our weather pages